Previsão horária em Justynow

Hoje, 24 Junho, Quinta-feira

Tempo Temperatura Precipitação Vento Pressão Humidade
00:00 +20°C° 0 mm 2 m/s 748 mmHg 97%
01:00 +19°C° 0 mm 2 m/s 748 mmHg 97%
02:00 +19°C° 0 mm 2 m/s 748 mmHg 98%
03:00 +19°C° 0 mm 2 m/s 748 mmHg 98%
04:00 +19°C° 0 mm 2 m/s 748 mmHg 98%
05:00 +20°C° 0 mm 2 m/s 748 mmHg 93%
06:00 +21°C° 0 mm 2 m/s 748 mmHg 89%
07:00 +24°C° 0 mm 2 m/s 748 mmHg 84%
08:00 +25°C° 0 mm 2 m/s 748 mmHg 78%
09:00 +27°C° 0 mm 2 m/s 748 mmHg 73%
10:00 +29°C° 0 mm 2 m/s 748 mmHg 67%
11:00 +30°C° 0.1 mm 2 m/s 747 mmHg 63%
12:00 +31°C° 0.1 mm 2 m/s 747 mmHg 60%
13:00 +31°C° 0.1 mm 2 m/s 747 mmHg 57%
14:00 +33°C° 0 mm 3 m/s 746 mmHg 56%
15:00 +33°C° 0 mm 3 m/s 746 mmHg 56%
16:00 +34°C° 0 mm 3 m/s 746 mmHg 55%
17:00 +31°C° 0.7 mm 3 m/s 745 mmHg 62%
18:00 +29°C° 0.7 mm 4 m/s 744 mmHg 69%
19:00 +27°C° 0.7 mm 4 m/s 744 mmHg 76%
20:00 +25°C° 2.4 mm 3 m/s 744 mmHg 80%
21:00 +22°C° 2.4 mm 3 m/s 744 mmHg 83%
22:00 +20°C° 2.4 mm 2 m/s 745 mmHg 86%
23:00 +19°C° 0 mm 2 m/s 745 mmHg 87%

Amanhã, 25 Junho, Sexta-feira

Tempo Temperatura Precipitação Vento Pressão Humidade
00:00 +19°C° 0 mm 2 m/s 745 mmHg 89%
01:00 +18°C° 0 mm 2 m/s 745 mmHg 90%
02:00 +18°C° 0 mm 2 m/s 745 mmHg 91%
03:00 +19°C° 0 mm 1 m/s 745 mmHg 92%
04:00 +19°C° 0 mm 1 m/s 744 mmHg 93%
05:00 +19°C° 0 mm 2 m/s 745 mmHg 91%
06:00 +20°C° 0 mm 2 m/s 745 mmHg 89%
07:00 +21°C° 0 mm 3 m/s 745 mmHg 88%
08:00 +22°C° 0 mm 3 m/s 745 mmHg 83%
09:00 +24°C° 0 mm 3 m/s 745 mmHg 78%
10:00 +25°C° 0 mm 3 m/s 746 mmHg 73%
11:00 +25°C° 0 mm 3 m/s 746 mmHg 71%
12:00 +25°C° 0 mm 3 m/s 746 mmHg 70%
13:00 +25°C° 0 mm 3 m/s 746 mmHg 68%
14:00 +23°C° 0 mm 4 m/s 746 mmHg 70%
15:00 +23°C° 0 mm 4 m/s 746 mmHg 72%
16:00 +22°C° 0 mm 5 m/s 746 mmHg 73%
17:00 +21°C° 0 mm 4 m/s 746 mmHg 76%
18:00 +21°C° 0 mm 4 m/s 746 mmHg 79%
19:00 +20°C° 0 mm 3 m/s 746 mmHg 82%
20:00 +19°C° 0 mm 3 m/s 746 mmHg 83%
21:00 +19°C° 0 mm 3 m/s 747 mmHg 84%
22:00 +18°C° 0 mm 3 m/s 747 mmHg 86%
23:00 +17°C° 0 mm 3 m/s 747 mmHg 89%

Depois de amanhã, 26 Junho, Sábado

Tempo Temperatura Precipitação Vento Pressão Humidade
00:00 +17°C° 0 mm 3 m/s 747 mmHg 92%
01:00 +16°C° 0 mm 3 m/s 747 mmHg 95%
02:00 +16°C° 0 mm 2 m/s 747 mmHg 95%
03:00 +15°C° 0 mm 2 m/s 747 mmHg 96%
04:00 +15°C° 0 mm 2 m/s 747 mmHg 96%
05:00 +17°C° 0 mm 2 m/s 748 mmHg 90%
06:00 +18°C° 0 mm 2 m/s 748 mmHg 83%
07:00 +19°C° 0 mm 2 m/s 748 mmHg 77%
08:00 +21°C° 0 mm 2 m/s 748 mmHg 71%
09:00 +23°C° 0 mm 2 m/s 749 mmHg 65%
10:00 +24°C° 0 mm 3 m/s 749 mmHg 59%
11:00 +24°C° 0 mm 3 m/s 748 mmHg 57%
12:00 +25°C° 0 mm 3 m/s 748 mmHg 55%
13:00 +25°C° 0 mm 3 m/s 748 mmHg 53%
14:00 +25°C° 0 mm 3 m/s 748 mmHg 55%
15:00 +24°C° 0 mm 2 m/s 748 mmHg 58%
16:00 +24°C° 0 mm 2 m/s 748 mmHg 60%
17:00 +23°C° 0 mm 2 m/s 748 mmHg 64%
18:00 +21°C° 0 mm 2 m/s 748 mmHg 67%
19:00 +20°C° 0 mm 2 m/s 748 mmHg 71%
20:00 +19°C° 0 mm 2 m/s 748 mmHg 71%
21:00 +18°C° 0 mm 2 m/s 748 mmHg 71%
22:00 +17°C° 0 mm 2 m/s 748 mmHg 71%
23:00 +16°C° 0 mm 2 m/s 748 mmHg 73%

27 Junho, Domingo

Tempo Temperatura Precipitação Vento Pressão Humidade
00:00 +16°C° 0 mm 2 m/s 748 mmHg 75%
01:00 +15°C° 0 mm 1 m/s 748 mmHg 77%
02:00 +15°C° 0 mm 1 m/s 748 mmHg 80%
03:00 +15°C° 0 mm 1 m/s 748 mmHg 82%
04:00 +15°C° 0 mm 1 m/s 748 mmHg 85%
05:00 +18°C° 0 mm 1 m/s 748 mmHg 80%
06:00 +19°C° 0 mm 1 m/s 749 mmHg 76%
07:00 +21°C° 0 mm 1 m/s 749 mmHg 71%
08:00 +22°C° 0 mm 1 m/s 749 mmHg 65%
09:00 +24°C° 0 mm 1 m/s 749 mmHg 60%
10:00 +25°C° 0 mm 1 m/s 749 mmHg 54%
11:00 +26°C° 0 mm 2 m/s 749 mmHg 51%
12:00 +26°C° 0 mm 2 m/s 749 mmHg 48%
13:00 +27°C° 0 mm 2 m/s 748 mmHg 45%
14:00 +27°C° 0 mm 2 m/s 748 mmHg 45%
15:00 +27°C° 0 mm 2 m/s 748 mmHg 45%
16:00 +27°C° 0 mm 2 m/s 748 mmHg 45%
17:00 +26°C° 0 mm 1 m/s 748 mmHg 51%
18:00 +24°C° 0 mm 1 m/s 748 mmHg 58%
19:00 +23°C° 0 mm 1 m/s 748 mmHg 64%
20:00 +22°C° 0 mm 1 m/s 748 mmHg 64%
21:00 +21°C° 0 mm 1 m/s 748 mmHg 65%
22:00 +20°C° 0 mm 1 m/s 748 mmHg 66%
23:00 +19°C° 0 mm 1 m/s 749 mmHg 68%

28 Junho, Segunda-feira

Tempo Temperatura Precipitação Vento Pressão Humidade
00:00 +19°C° 0 mm 1 m/s 749 mmHg 69%
01:00 +18°C° 0 mm 1 m/s 749 mmHg 71%
02:00 +18°C° 0 mm 1 m/s 749 mmHg 72%
03:00 +18°C° 0 mm 1 m/s 749 mmHg 73%
04:00 +18°C° 0 mm 1 m/s 749 mmHg 74%
05:00 +17°C° 0 mm 0 m/s 749 mmHg 70%
06:00 +19°C° 0 mm 0 m/s 749 mmHg 66%
07:00 +21°C° 0 mm 0 m/s 749 mmHg 62%
08:00 +22°C° 0 mm 0 m/s 749 mmHg 58%
09:00 +26°C° 0 mm 1 m/s 749 mmHg 54%
10:00 +27°C° 0 mm 1 m/s 749 mmHg 50%
11:00 +28°C° 0 mm 1 m/s 749 mmHg 48%
12:00 +28°C° 0 mm 1 m/s 749 mmHg 46%
13:00 +26°C° 0 mm 0 m/s 749 mmHg 45%
14:00 +28°C° 0 mm 1 m/s 749 mmHg 49%
15:00 +27°C° 0 mm 1 m/s 748 mmHg 54%
16:00 +27°C° 0 mm 1 m/s 748 mmHg 59%
17:00 +26°C° 0 mm 2 m/s 748 mmHg 61%
18:00 +25°C° 0 mm 2 m/s 748 mmHg 64%
19:00 +24°C° 0 mm 2 m/s 748 mmHg 67%
20:00 +24°C° 0 mm 2 m/s 748 mmHg 65%
21:00 +23°C° 0 mm 2 m/s 748 mmHg 63%
22:00 +23°C° 0 mm 2 m/s 748 mmHg 61%
23:00 +21°C° 0 mm 2 m/s 748 mmHg 62%

29 Junho, Terça-feira

Tempo Temperatura Precipitação Vento Pressão Humidade
00:00 +21°C° 0 mm 2 m/s 748 mmHg 63%
01:00 +21°C° 0 mm 2 m/s 748 mmHg 64%
02:00 +20°C° 0 mm 2 m/s 748 mmHg 66%
03:00 +20°C° 0 mm 2 m/s 748 mmHg 68%
04:00 +19°C° 0 mm 2 m/s 748 mmHg 71%
05:00 +21°C° 0 mm 2 m/s 748 mmHg 69%
06:00 +23°C° 0 mm 2 m/s 748 mmHg 67%
07:00 +24°C° 0 mm 2 m/s 748 mmHg 66%
08:00 +26°C° 0 mm 2 m/s 748 mmHg 60%
09:00 +27°C° 0 mm 3 m/s 748 mmHg 55%
10:00 +29°C° 0 mm 3 m/s 748 mmHg 50%
11:00 +29°C° 0 mm 3 m/s 748 mmHg 48%
12:00 +30°C° 0 mm 3 m/s 748 mmHg 46%
13:00 +30°C° 0 mm 3 m/s 748 mmHg 44%
14:00 +30°C° 0 mm 2 m/s 748 mmHg 44%
15:00 +30°C° 0 mm 2 m/s 748 mmHg 44%
16:00 +30°C° 0 mm 2 m/s 747 mmHg 45%
17:00 +29°C° 0 mm 2 m/s 747 mmHg 51%
18:00 +28°C° 0 mm 2 m/s 747 mmHg 58%
19:00 +26°C° 0 mm 2 m/s 747 mmHg 65%
20:00 +25°C° 0 mm 2 m/s 747 mmHg 66%
21:00 +24°C° 0 mm 3 m/s 747 mmHg 68%
22:00 +22°C° 0 mm 3 m/s 748 mmHg 69%
23:00 +21°C° 0 mm 3 m/s 748 mmHg 72%
Mostrar mais

Necessitamos do seu Consentimento

A Meteoprog e os seus Fornecedores de Serviços podem armazenar e aceder a dados pessoais como cookies, identificadores do dispositivo ou outras tecnologias semelhantes existentes no seu dispositivo e processar estes dados para personalizar conteúdos e anúncios, assim como funcionalidades nas redes sociais e análise de tráfego.

  • Armazenar e/ou aceder a informações no seu dispositivo

    Os cookies, identificadores do dispositivo ou outras informações podem ser armazenados ou acedidos no seu dispositivo, para os fins acima indicados.

  • Anúncios e conteúdos personalizados, medição de anúncios e conteúdos, dados sobre o público-alvo e desenvolvimento de produtos

    Os anúncios e os conteúdos podem ser personalizados com base num perfil. Podem ser adicionados dados adicionais para uma maior personalização dos anúncios e dos conteúdos. A eficácia dos anúncios e dos conteúdos pode ser medida. Podem ser obtidas informações sobre o público que visualizou os anúncios e os conteúdos. Estes dados podem ser usados para desenvolver ou melhorar sistemas, softwares ou a experiência do utilizador.

Ao clicar em "Eu concordo”, permitirá o uso de cookies, identificadores do dispositivo e web beacons mencionados ou outras tecnologias semelhantes. As configurações do navegador do seu dispositivo podem ser alteradas.

Para certos fins, podem ser invocados interesses legítimos ao invés de consentimento. Pode ler mais informação sobre este assunto na nossa Política de Privacidade e Cookies.